Station TIXC1 - Tidal Linkage, Tijuana River Reserve, CA Image indicating link to RSS feed of recent meteorological observations for station TIXC1


Conditions at TIXC1 as of
(12:45 pm PDT)
1945 GMT on 05/28/2024:
     

Click on the graph icon in the table below to see a time series plot of the last five days of that observation.

5-day plot - Wind Direction Wind Direction (WDIR):WNW ( 300 deg true )
5-day plot - Wind Speed Wind Speed (WSPD): 5.1 kts
5-day plot - Atmospheric Pressure Atmospheric Pressure (PRES):30.09 in
5-day plot - Air Temperature Air Temperature (ATMP): 64.9 °F
5-day plot - Dew Point Dew Point (DEWP): 55.9 °F
5-day plot -  Wind Speed, Wind Gust and Atmospheric Pressure Combined plot of Wind Speed, Gust, and Air Pressure
Previous observations
TIME
(PDT)
5-day plot - Wind Direction
WDIR
 
5-day plot - Wind Speed
WSPD
kts
5-day plot - Wind Gust
GST
kts
5-day plot - Wave Height
WVHT
ft
5-day plot - Dominant Wave Period
DPD
sec
5-day plot - Average Wave Period
APD
sec
5-day plot - Mean Wave Direction
MWD
 
5-day plot - Atmospheric Pressure
PRES
in
5-day plot - Pressure Tendency
PTDY
in
5-day plot - Air Temperature
ATMP
°F
5-day plot - Water Temperature
WTMP
°F
5-day plot - Dew Point
DEWP
°F
5-day plot - Salinity
SAL
psu
5-day plot - Visibility
VIS
nmi
5-day plot - Tide (above MLLW)
TIDE
ft
2024-05-28 12:30 pm NW 5.1-----30.09- 65.3- 56.3---
2024-05-28 12:15 pm NW 5.1-----30.09- 65.3- 56.3---
2024-05-28 12:00 pm NW 4.1-----30.09+0.03 64.9- 56.3---
2024-05-28 11:45 am NW 4.1-----30.09- 63.3- 56.1---
2024-05-28 11:30 amWNW 5.1-----30.09- 61.9- 55.8---
2024-05-28 11:15 am W 6.0-----30.09- 61.2- 55.8---
2024-05-28 11:00 amWNW 5.1-----30.09+0.03 61.0- 55.9---
2024-05-28 10:45 am W 5.1-----30.09- 60.3- 55.8---
2024-05-28 10:30 am W 5.1-----30.09- 59.7- 55.6---
2024-05-28 10:15 am W 4.1-----30.06- 59.5- 55.8---
2024-05-28 10:00 am W 2.9-----30.06+0.00 59.2- 55.4---
2024-05-28 09:45 am W 2.9-----30.06- 59.2- 55.4---
2024-05-28 09:30 am W 1.9-----30.06- 59.0- 55.2---
2024-05-28 09:15 am SW 1.9-----30.06- 58.8- 55.0---
2024-05-28 09:00 am SW 1.9-----30.06+0.03 58.3- 54.9---
2024-05-28 08:45 amWNW 1.9-----30.06- 58.1- 54.9---
2024-05-28 08:30 amWNW 1.9-----30.06- 57.9- 55.0---
2024-05-28 08:15 amWNW 2.9-----30.06- 57.9- 55.0---
2024-05-28 08:00 am NW 2.9-----30.06+0.03 57.9- 55.0---
2024-05-28 07:45 am W 1.0-----30.06- 57.9- 54.7---
2024-05-28 07:30 amWSW 1.0-----30.06- 57.7- 54.9---
2024-05-28 07:15 am W 1.9-----30.06- 57.6- 54.7---
2024-05-28 07:00 am W 4.1-----30.06+0.03 57.6- 54.7---
2024-05-28 06:45 amWNW 4.1-----30.06- 57.6- 54.7---
2024-05-28 06:30 amWNW 5.1-----30.06- 57.6- 54.7---
2024-05-28 06:15 amWNW 4.1-----30.03- 57.7- 54.5---
2024-05-28 06:00 amWNW 2.9-----30.03+0.00 57.9- 54.7---
2024-05-28 05:45 amWNW 2.9-----30.03- 57.9- 54.7---
2024-05-28 05:30 am NW 1.9-----30.03- 57.9- 54.7---
2024-05-28 05:15 amWNW 1.9-----30.03- 57.7- 54.5---
2024-05-28 05:00 amWNW 2.9-----30.03+0.00 57.7- 54.5---
2024-05-28 04:45 am W 2.9-----30.03- 57.6- 54.1---
2024-05-28 04:30 am NW 2.9-----30.03- 57.9- 54.5---
2024-05-28 04:15 am NW 2.9-----30.03- 57.9- 54.5---
2024-05-28 04:00 am NW 1.9-----30.03-0.03 57.9- 54.5---
2024-05-28 03:45 amWNW 1.9-----30.03- 57.7- 54.3---
2024-05-28 03:30 amWNW 1.9-----30.03- 57.7- 54.3---
2024-05-28 03:15 am NW 1.9-----30.03- 57.9- 54.5---
2024-05-28 03:00 am W 1.9-----30.03-0.03 57.7- 54.0---
2024-05-28 02:45 am W 1.9-----30.03- 57.7- 54.0---
2024-05-28 02:30 am- 0.0-----30.03- 57.7- 54.0---
2024-05-28 02:15 am- 0.0-----30.03- 57.9- 53.8---
2024-05-28 02:00 amNNE 1.0-----30.03-0.03 57.9- 53.8---
2024-05-28 01:45 am NW 1.9-----30.03- 58.1- 54.3---
2024-05-28 01:30 amWNW 1.9-----30.03- 58.1- 54.3---
2024-05-28 01:15 amWNW 2.9-----30.03- 58.3- 54.5---
2024-05-28 01:00 am W 2.9-----30.06+0.00 58.3- 54.1---
2024-05-28 12:45 am W 4.1-----30.06- 58.3- 54.1---
2024-05-28 12:30 amWNW 2.9-----30.06- 58.5- 54.3---
2024-05-28 12:15 amWNW 4.1-----30.06- 58.6- 54.1---
2024-05-28 12:00 amWNW 2.9-----30.06+0.00 58.6- 54.1---
2024-05-27 11:45 pmWNW 1.9-----30.06- 58.6- 54.1---
2024-05-27 11:30 pmWNW 1.9-----30.06- 58.6- 54.0---
2024-05-27 11:15 pmWNW 1.9-----30.06- 58.6- 54.0---
2024-05-27 11:00 pm NW 1.9-----30.06+0.00 58.6- 54.0---
2024-05-27 10:45 pmWNW 1.9-----30.06- 58.6- 54.0---
2024-05-27 10:30 pmWNW 1.9-----30.06- 58.6- 54.0---
2024-05-27 10:15 pmNNW 1.0-----30.06- 58.5- 53.4---
2024-05-27 10:00 pmNNW 1.9-----30.06+0.03 58.5- 53.4---
2024-05-27 09:45 pmNNW 1.9-----30.06- 58.6- 53.6---
2024-05-27 09:30 pm NW 2.9-----30.06- 58.6- 53.6---
2024-05-27 09:15 pm NW 2.9-----30.06- 58.6- 53.6---
2024-05-27 09:00 pm NW 2.9-----30.06+0.00 58.6- 53.6---
2024-05-27 08:45 pm NW 2.9-----30.06- 58.6- 54.0---
2024-05-27 08:30 pm NW 2.9-----30.06- 58.5- 53.8---
2024-05-27 08:15 pm NW 2.9-----30.06- 58.1- 53.4---
2024-05-27 08:00 pm NW 2.9-----30.06+0.00 58.1- 53.1---
2024-05-27 07:45 pmWNW 4.1-----30.06- 58.3- 53.2---
2024-05-27 07:30 pmWNW 4.1-----30.06- 58.8- 53.1---
2024-05-27 07:15 pmWNW 4.1-----30.06- 59.2- 53.1---
2024-05-27 07:00 pmWNW 5.1-----30.03-0.03 59.7- 53.2---
2024-05-27 06:45 pmWNW 5.1-----30.03- 60.3- 53.4---
2024-05-27 06:30 pmWNW 5.1-----30.03- 60.4- 53.6---
2024-05-27 06:15 pmWNW 6.0-----30.06- 60.1- 53.2---
2024-05-27 06:00 pmWNW 6.0-----30.06+0.00 61.0- 53.8---
2024-05-27 05:45 pmWNW 6.0-----30.03- 61.9- 54.0---
2024-05-27 05:30 pmWNW 7.0-----30.06- 62.6- 54.7---
2024-05-27 05:15 pmWNW 7.0-----30.06- 63.0- 55.0---
2024-05-27 05:00 pmWNW 7.0-----30.06-0.03 63.7- 55.4---
2024-05-27 04:45 pmWNW 7.0-----30.06- 64.0- 55.4---
2024-05-27 04:30 pmWNW 7.0-----30.06- 64.4- 55.8---
2024-05-27 04:15 pmWNW 7.0-----30.06- 64.9- 56.3---
2024-05-27 04:00 pmWNW 7.0-----30.06-0.03 64.9- 56.7---
2024-05-27 03:45 pmWNW 7.0-----30.06- 65.3- 57.0---
2024-05-27 03:30 pmWNW 8.0-----30.06- 65.1- 57.2---
2024-05-27 03:15 pmWNW 8.0-----30.06- 65.5- 57.6---
2024-05-27 03:00 pmWNW 8.0-----30.06-0.03 65.7- 57.7---
2024-05-27 02:45 pmWNW 8.0-----30.06- 65.8- 57.9---
2024-05-27 02:30 pmWNW 8.0-----30.06- 66.4- 57.9---
2024-05-27 02:15 pmWNW 8.0-----30.06- 65.8- 57.9---
2024-05-27 02:00 pmWNW 8.9-----30.09+0.00 66.0- 58.1---
2024-05-27 01:45 pmWNW 8.0-----30.09- 66.0- 58.1---
2024-05-27 01:30 pmWNW 8.0-----30.09- 66.7- 58.3---
2024-05-27 01:15 pmWNW 8.0-----30.09- 66.6- 58.5---
2024-05-27 01:00 pmWNW 8.0-----30.09+0.00 66.2- 58.3---